Location: Chillicothe
(39.7950°N, 93.5520°W)
Time: 07:44:20
(UTC-06:00)

Explorer 11/Cluster Stage 4 - Pass Details

Date: 25 October 2019
Orbit: 467 x 1259 km, 28.8° (Epoch: 14 November)

Event Time Altitude Azimuth Distance (km) Brightness Sun altitude
Rises 09:35:20 0° 240° (WSW) 2,654 9.1 19.9°
Reaches altitude 10° 09:38:22 10° 217° (SW) 1,678 8.4 20.4°
Maximum altitude 09:40:38 15° 180° (S) 1,340 8.5 20.7°
Drops below altitude 10° 09:42:50 10° 142° (SE) 1,610 10.0 21.1°
Sets 09:45:39 0° 119° (ESE) 2,485 10.6 21.5°
